Location: Ash Swamp
(41.5170°N, 74.6157°W)
Time: 02:29:55
(UTC+00:00)

H-2A R/B - Pass Details

Date: 14 July 2020
Orbit: 577 x 656 km, 98.5° (Epoch: 14 August)

Event Time Altitude Azimuth Distance (km) Brightness Sun altitude
Rises 08:29:43 0° 169° (SSE) 2,932 5.2 -11.0°
Reaches altitude 10° 08:31:56 10° 170° (S) 2,017 4.4 -10.7°
Maximum altitude 08:36:19 77° 256° (WSW) 647 2.0 -10.1°
Drops below altitude 10° 08:40:39 10° 344° (NNW) 1,985 5.0 -9.5°
Sets 08:42:49 0° 345° (NNW) 2,881 5.9 -9.2°
